SAS221 ESGG-EGLL

Flight info

Callsign SAS221
Flight time 1h 38m
Altitude 40000
Route VADIN3J VADIN DCT ABINO DCT ATTUS DCT BEDUM DCT SPY DCT ABNED L980 LOGAN LOGAN2H
Aircraft A359/H-SDE2E3GHIJ1J3J4J5LM1ORWXYZ/LB1D1

Departure

Time 2026-05-06 16:09
Airport Göteborg Landvetter Airport (ESGG)

Arrival

Time 2026-05-06 17:48
Airport London Heathrow Airport (EGLL)
Time Latitude Longitude Altitude Speed Heading
2026-05-06 15:45 57.66492 12.28850 511 ft 0 kts 295°
2026-05-06 15:57 57.66489 12.28862 511 ft 2 kts 297°
2026-05-06 15:57 57.66481 12.28889 511 ft 2 kts 304°
2026-05-06 15:57 57.66470 12.28912 511 ft 2 kts 320°
2026-05-06 15:58 57.66456 12.28926 511 ft 2 kts 359°
2026-05-06 15:58 57.66441 12.28921 511 ft 1 kts 24°
2026-05-06 15:58 57.66439 12.28919 511 ft 0 kts 25°
2026-05-06 16:00 57.66441 12.28921 511 ft 1 kts 24°
2026-05-06 16:00 57.66459 12.28935 511 ft 5 kts 22°
2026-05-06 16:00 57.66462 12.28937 511 ft 0 kts 22°
2026-05-06 16:00 57.66467 12.28940 511 ft 2 kts 21°
2026-05-06 16:01 57.66476 12.28947 511 ft 0 kts 20°
2026-05-06 16:01 57.66480 12.28950 511 ft 0 kts 20°
2026-05-06 16:01 57.66481 12.28951 511 ft 0 kts 20°
2026-05-06 16:01 57.66482 12.28951 511 ft 0 kts 19°
2026-05-06 16:02 57.66501 12.28960 512 ft 4 kts
2026-05-06 16:02 57.66534 12.28956 512 ft 6 kts
2026-05-06 16:02 57.66571 12.28984 512 ft 7 kts 27°
2026-05-06 16:02 57.66589 12.28989 512 ft 1 kts 346°
2026-05-06 16:03 57.66590 12.28985 512 ft 0 kts 333°
2026-05-06 16:03 57.66593 12.28981 512 ft 2 kts 326°
2026-05-06 16:03 57.66622 12.28938 513 ft 0 kts 306°
2026-05-06 16:03 57.66638 12.28861 513 ft 10 kts 294°
2026-05-06 16:04 57.66672 12.28744 513 ft 0 kts 308°
2026-05-06 16:04 57.66674 12.28740 512 ft 1 kts 308°
2026-05-06 16:04 57.66686 12.28711 512 ft 0 kts 314°
2026-05-06 16:04 57.66689 12.28710 513 ft 1 kts 331°
2026-05-06 16:05 57.66700 12.28712 513 ft 5 kts
2026-05-06 16:05 57.66778 12.28772 513 ft 19 kts 26°
2026-05-06 16:05 57.66870 12.28865 515 ft 11 kts 26°
2026-05-06 16:05 57.66949 12.28935 515 ft 14 kts 25°
2026-05-06 16:06 57.67000 12.28981 516 ft 5 kts 26°
2026-05-06 16:06 57.67004 12.28985 516 ft 3 kts 26°
2026-05-06 16:06 57.67007 12.28987 516 ft 0 kts 26°
2026-05-06 16:06 57.67020 12.28998 516 ft 5 kts 25°
2026-05-06 16:07 57.67089 12.29061 517 ft 15 kts 26°
2026-05-06 16:07 57.67195 12.29155 518 ft 19 kts 25°
2026-05-06 16:07 57.67320 12.29270 519 ft 21 kts 28°
2026-05-06 16:07 57.67415 12.29334 520 ft 10 kts 353°
2026-05-06 16:08 57.67450 12.29261 520 ft 8 kts 285°
2026-05-06 16:08 57.67453 12.29161 519 ft 10 kts 263°
2026-05-06 16:08 57.67414 12.29024 519 ft 11 kts 225°
2026-05-06 16:08 57.67408 12.29015 519 ft 1 kts 223°
2026-05-06 16:09 57.67385 12.28984 519 ft 17 kts 212°
2026-05-06 16:09 57.66907 12.28540 514 ft 139 kts 207°
2026-05-06 16:09 57.65722 12.27452 678 ft 230 kts 208°
2026-05-06 16:09 57.64255 12.26122 1824 ft 237 kts 208°
2026-05-06 16:10 57.62720 12.24704 2698 ft 254 kts 207°
2026-05-06 16:10 57.61121 12.23260 3683 ft 257 kts 204°
2026-05-06 16:10 57.59366 12.22627 4486 ft 259 kts 182°
2026-05-06 16:10 57.57557 12.22569 4927 ft 260 kts 181°
2026-05-06 16:11 57.55747 12.22424 5544 ft 261 kts 184°
2026-05-06 16:11 57.54799 12.22301 6076 ft 260 kts 184°
2026-05-06 16:11 57.53006 12.22019 7144 ft 259 kts 185°
2026-05-06 16:11 57.51192 12.21698 8116 ft 264 kts 186°
2026-05-06 16:12 57.49343 12.21342 9070 ft 270 kts 187°
2026-05-06 16:12 57.47459 12.20967 9977 ft 275 kts 187°
2026-05-06 16:12 57.45524 12.20538 10621 ft 290 kts 191°
2026-05-06 16:12 57.43560 12.19406 10983 ft 309 kts 208°
2026-05-06 16:13 57.41836 12.16938 11606 ft 318 kts 225°
2026-05-06 16:13 57.40321 12.14070 12372 ft 323 kts 227°
2026-05-06 16:13 57.38700 12.10950 13203 ft 326 kts 227°
2026-05-06 16:13 57.37104 12.07911 13983 ft 329 kts 227°
2026-05-06 16:14 57.35489 12.04858 14662 ft 333 kts 227°
2026-05-06 16:14 57.33878 12.01825 15348 ft 336 kts 227°
2026-05-06 16:14 57.32236 11.98745 16106 ft 338 kts 227°
2026-05-06 16:14 57.30592 11.95667 16831 ft 340 kts 227°
2026-05-06 16:15 57.30263 11.95051 16972 ft 340 kts 227°
2026-05-06 16:15 57.28589 11.91925 17699 ft 342 kts 227°
2026-05-06 16:15 57.26908 11.88791 18384 ft 345 kts 227°
2026-05-06 16:15 57.25216 11.85641 18986 ft 347 kts 227°
2026-05-06 16:16 57.23510 11.82470 19607 ft 348 kts 227°
2026-05-06 16:16 57.21794 11.79285 20187 ft 351 kts 227°
2026-05-06 16:16 57.20068 11.76085 20787 ft 353 kts 227°
2026-05-06 16:16 57.18326 11.72861 21377 ft 355 kts 227°
2026-05-06 16:17 57.16580 11.69634 21954 ft 357 kts 227°
2026-05-06 16:17 57.14815 11.66380 22513 ft 360 kts 227°
2026-05-06 16:17 57.12972 11.63222 23071 ft 363 kts 225°
2026-05-06 16:17 57.11044 11.60186 23606 ft 366 kts 223°
2026-05-06 16:18 57.09060 11.57216 24071 ft 369 kts 222°
2026-05-06 16:18 57.07045 11.54282 24549 ft 371 kts 221°
2026-05-06 16:18 57.05009 11.51347 25020 ft 373 kts 221°
2026-05-06 16:18 57.02959 11.48399 25534 ft 375 kts 221°
2026-05-06 16:19 57.00902 11.45433 26058 ft 377 kts 221°
2026-05-06 16:19 56.98840 11.42451 26605 ft 379 kts 221°
2026-05-06 16:19 56.96760 11.39439 27200 ft 382 kts 221°
2026-05-06 16:19 56.94671 11.36412 27782 ft 384 kts 221°
2026-05-06 16:20 56.92572 11.33371 28400 ft 387 kts 221°
2026-05-06 16:20 56.90450 11.30300 29029 ft 390 kts 221°
2026-05-06 16:20 56.88311 11.27210 29670 ft 393 kts 221°
2026-05-06 16:20 56.86151 11.24095 30222 ft 396 kts 221°
2026-05-06 16:21 56.83978 11.20966 30699 ft 401 kts 221°
2026-05-06 16:21 56.81773 11.17796 31176 ft 405 kts 220°
2026-05-06 16:21 56.79545 11.14600 31648 ft 409 kts 220°
2026-05-06 16:21 56.77298 11.11384 32123 ft 413 kts 220°
2026-05-06 16:22 56.75022 11.08128 32592 ft 417 kts 220°
2026-05-06 16:22 56.72736 11.04863 33054 ft 420 kts 220°
2026-05-06 16:22 56.70423 11.01565 33500 ft 424 kts 220°
2026-05-06 16:22 56.68089 10.98243 33914 ft 428 kts 220°
2026-05-06 16:23 56.65734 10.94895 34268 ft 431 kts 220°
2026-05-06 16:23 56.63381 10.91556 34583 ft 436 kts 220°
2026-05-06 16:23 56.60955 10.88119 34868 ft 440 kts 220°
2026-05-06 16:23 56.58533 10.84694 35228 ft 442 kts 220°
2026-05-06 16:24 56.56136 10.81311 35684 ft 443 kts 220°
2026-05-06 16:24 56.53676 10.77844 36115 ft 444 kts 220°
2026-05-06 16:24 56.51265 10.74450 36498 ft 445 kts 220°
2026-05-06 16:24 56.48785 10.70965 36923 ft 447 kts 220°
2026-05-06 16:25 56.46355 10.67555 37326 ft 448 kts 220°
2026-05-06 16:25 56.43888 10.64099 37758 ft 449 kts 220°
2026-05-06 16:25 56.41413 10.60638 38166 ft 450 kts 220°
2026-05-06 16:25 56.38936 10.57181 38567 ft 451 kts 220°
2026-05-06 16:26 56.36446 10.53711 38885 ft 452 kts 220°
2026-05-06 16:26 56.33953 10.50243 39191 ft 453 kts 220°
2026-05-06 16:26 56.32267 10.47903 39387 ft 454 kts 220°
2026-05-06 16:26 56.29796 10.44476 39687 ft 455 kts 220°
2026-05-06 16:27 56.27281 10.40994 39942 ft 456 kts 220°
2026-05-06 16:27 56.24762 10.37511 40012 ft 457 kts 220°
2026-05-06 16:27 56.19689 10.30520 40016 ft 457 kts 220°
2026-05-06 16:28 56.14675 10.23634 40015 ft 457 kts 220°
2026-05-06 16:28 56.09627 10.16724 40008 ft 457 kts 220°
2026-05-06 16:29 56.04562 10.09813 40005 ft 457 kts 219°
2026-05-06 16:29 55.99495 10.02924 39997 ft 458 kts 219°
2026-05-06 16:30 55.95235 9.97192 39995 ft 458 kts 218°
2026-05-06 16:30 55.89043 9.89903 40008 ft 459 kts 215°
2026-05-06 16:31 55.83640 9.83826 40006 ft 459 kts 215°
2026-05-06 16:31 55.78263 9.77689 40005 ft 459 kts 216°
2026-05-06 16:32 55.72908 9.71514 40008 ft 459 kts 216°
2026-05-06 16:32 55.67547 9.65328 40009 ft 459 kts 216°
2026-05-06 16:33 55.62187 9.59165 40010 ft 459 kts 215°
2026-05-06 16:34 55.54135 9.49954 40018 ft 460 kts 215°
2026-05-06 16:34 55.48760 9.43832 40017 ft 460 kts 215°
2026-05-06 16:35 55.43385 9.37730 40021 ft 460 kts 215°
2026-05-06 16:35 55.38006 9.31643 40020 ft 460 kts 215°
2026-05-06 16:36 55.32615 9.25562 40020 ft 460 kts 215°
2026-05-06 16:36 55.27231 9.19509 40018 ft 460 kts 215°
2026-05-06 16:37 55.21829 9.13455 40019 ft 461 kts 215°
2026-05-06 16:37 55.16430 9.07425 40014 ft 461 kts 215°
2026-05-06 16:38 55.11013 9.01394 40008 ft 461 kts 215°
2026-05-06 16:38 55.05601 8.95391 40001 ft 461 kts 215°
2026-05-06 16:39 55.00217 8.89436 39995 ft 461 kts 214°
2026-05-06 16:39 54.94797 8.83460 40001 ft 461 kts 214°
2026-05-06 16:40 54.89468 8.77259 40010 ft 460 kts 219°
2026-05-06 16:40 54.84491 8.70284 40013 ft 460 kts 221°
2026-05-06 16:41 54.79607 8.63122 40011 ft 460 kts 221°
2026-05-06 16:41 54.74752 8.55928 40008 ft 460 kts 221°
2026-05-06 16:42 54.69884 8.48745 40009 ft 460 kts 221°
2026-05-06 16:42 54.65008 8.41593 40004 ft 460 kts 221°
2026-05-06 16:43 54.60128 8.34468 40000 ft 460 kts 221°
2026-05-06 16:43 54.55244 8.27360 39997 ft 460 kts 221°
2026-05-06 16:44 54.50345 8.20253 39998 ft 460 kts 221°
2026-05-06 16:44 54.45438 8.13157 39998 ft 460 kts 221°
2026-05-06 16:45 54.40533 8.06087 40001 ft 460 kts 221°
2026-05-06 16:45 54.35627 7.99037 39997 ft 460 kts 221°
2026-05-06 16:46 54.30710 7.91995 40000 ft 461 kts 221°
2026-05-06 16:46 54.25826 7.85024 39997 ft 461 kts 220°
2026-05-06 16:47 54.20870 7.77972 40002 ft 461 kts 220°
2026-05-06 16:47 54.15940 7.70979 40000 ft 460 kts 220°
2026-05-06 16:48 54.11014 7.64014 40002 ft 460 kts 220°
2026-05-06 16:48 54.06080 7.57061 39996 ft 460 kts 220°
2026-05-06 16:49 54.01184 7.50181 39997 ft 460 kts 220°
2026-05-06 16:49 53.96245 7.43265 40000 ft 460 kts 220°
2026-05-06 16:50 53.91306 7.36369 40005 ft 460 kts 220°
2026-05-06 16:50 53.86361 7.29487 40001 ft 460 kts 220°
2026-05-06 16:51 53.81413 7.22623 39999 ft 460 kts 220°
2026-05-06 16:51 53.76448 7.15840 39999 ft 459 kts 217°
2026-05-06 16:52 53.71393 7.09222 39999 ft 459 kts 214°
2026-05-06 16:52 53.66263 7.02819 39997 ft 461 kts 214°
2026-05-06 16:53 53.61190 6.96187 39999 ft 461 kts 216°
2026-05-06 16:53 53.56189 6.89405 39997 ft 461 kts 216°
2026-05-06 16:54 53.51225 6.82617 40001 ft 460 kts 216°
2026-05-06 16:54 53.46245 6.75837 39998 ft 461 kts 216°
2026-05-06 16:55 53.41258 6.69084 39999 ft 461 kts 216°
2026-05-06 16:55 53.36306 6.62371 39982 ft 461 kts 218°
2026-05-06 16:56 53.31947 6.54452 39998 ft 465 kts 227°
2026-05-06 16:56 53.28021 6.45914 40004 ft 462 kts 229°
2026-05-06 16:57 53.24174 6.37349 40003 ft 461 kts 229°
2026-05-06 16:57 53.20313 6.28794 39998 ft 461 kts 229°
2026-05-06 16:58 53.16441 6.20287 39998 ft 461 kts 229°
2026-05-06 16:58 53.12544 6.11775 40011 ft 462 kts 229°
2026-05-06 16:59 53.08646 6.03287 40011 ft 462 kts 229°
2026-05-06 16:59 53.04738 5.94803 40015 ft 462 kts 228°
2026-05-06 17:00 53.00825 5.86341 40016 ft 463 kts 228°
2026-05-06 17:00 52.96894 5.77874 40004 ft 463 kts 228°
2026-05-06 17:01 52.92959 5.69422 40008 ft 463 kts 228°
2026-05-06 17:01 52.89016 5.60975 40010 ft 463 kts 228°
2026-05-06 17:02 52.85062 5.52530 40003 ft 464 kts 228°
2026-05-06 17:02 52.81138 5.44175 40003 ft 464 kts 228°
2026-05-06 17:03 52.77169 5.35753 40003 ft 465 kts 228°
2026-05-06 17:03 52.73184 5.27337 40005 ft 465 kts 227°
2026-05-06 17:04 52.69192 5.18937 39997 ft 466 kts 227°
2026-05-06 17:04 52.65179 5.10512 40000 ft 467 kts 227°
2026-05-06 17:05 52.61167 5.02110 39993 ft 467 kts 227°
2026-05-06 17:05 52.57145 4.93706 40001 ft 467 kts 227°
2026-05-06 17:06 52.53200 4.85219 40003 ft 470 kts 231°
2026-05-06 17:06 52.49561 4.76305 40000 ft 469 kts 232°
2026-05-06 17:07 52.45989 4.67375 39990 ft 469 kts 232°
2026-05-06 17:07 52.42414 4.58425 39993 ft 469 kts 232°
2026-05-06 17:08 52.38832 4.49502 39995 ft 469 kts 232°
2026-05-06 17:08 52.35237 4.40598 39995 ft 469 kts 232°
2026-05-06 17:09 52.31636 4.31715 39998 ft 469 kts 232°
2026-05-06 17:09 52.28051 4.22921 40002 ft 469 kts 232°
2026-05-06 17:10 52.24430 4.14066 40001 ft 469 kts 232°
2026-05-06 17:10 52.20775 4.05144 40001 ft 469 kts 232°
2026-05-06 17:11 52.17173 3.96369 40001 ft 469 kts 232°
2026-05-06 17:11 52.13516 3.87493 40002 ft 469 kts 232°
2026-05-06 17:12 52.09905 3.78765 39998 ft 468 kts 232°
2026-05-06 17:12 52.06262 3.69990 40004 ft 468 kts 232°
2026-05-06 17:13 52.02612 3.61230 40002 ft 468 kts 231°
2026-05-06 17:13 51.98950 3.52475 40005 ft 469 kts 231°
2026-05-06 17:14 51.95283 3.43750 40006 ft 469 kts 231°
2026-05-06 17:14 51.91604 3.35022 40011 ft 469 kts 231°
2026-05-06 17:15 51.87921 3.26306 40013 ft 469 kts 231°
2026-05-06 17:15 51.84873 3.16931 40013 ft 476 kts 246°
2026-05-06 17:16 51.83639 3.08238 40027 ft 479 kts 257°
2026-05-06 17:16 51.82866 2.97597 40026 ft 475 kts 259°
2026-05-06 17:17 51.82210 2.86988 40020 ft 474 kts 259°
2026-05-06 17:17 51.81533 2.76379 40023 ft 474 kts 258°
2026-05-06 17:17 51.81185 2.71143 39707 ft 465 kts 258°
2026-05-06 17:18 51.80843 2.65970 39462 ft 461 kts 258°
2026-05-06 17:18 51.80490 2.60823 38668 ft 459 kts 258°
2026-05-06 17:18 51.80127 2.55720 37100 ft 459 kts 258°
2026-05-06 17:18 51.79748 2.50567 35411 ft 463 kts 257°
2026-05-06 17:19 51.79357 2.45406 33781 ft 464 kts 257°
2026-05-06 17:19 51.78960 2.40237 31902 ft 465 kts 258°
2026-05-06 17:19 51.78569 2.35033 30050 ft 466 kts 258°
2026-05-06 17:19 51.78201 2.29851 28190 ft 462 kts 259°
2026-05-06 17:20 51.77852 2.24700 26659 ft 466 kts 260°
2026-05-06 17:20 51.77536 2.19484 25680 ft 464 kts 262°
2026-05-06 17:20 51.77372 2.14330 25205 ft 450 kts 263°
2026-05-06 17:20 51.77192 2.09404 25058 ft 429 kts 262°
2026-05-06 17:21 51.76970 2.04747 25051 ft 406 kts 261°
2026-05-06 17:21 51.76727 2.00334 25058 ft 383 kts 260°
2026-05-06 17:21 51.76489 1.96160 25066 ft 363 kts 260°
2026-05-06 17:21 51.76266 1.92192 25078 ft 349 kts 259°
2026-05-06 17:22 51.76044 1.88301 25063 ft 348 kts 259°
2026-05-06 17:22 51.75957 1.86820 25060 ft 349 kts 259°
2026-05-06 17:22 51.75723 1.82917 25068 ft 351 kts 259°
2026-05-06 17:22 51.75483 1.78998 25055 ft 351 kts 259°
2026-05-06 17:23 51.75244 1.75120 25068 ft 351 kts 259°
2026-05-06 17:23 51.75002 1.71207 25064 ft 351 kts 259°
2026-05-06 17:23 51.74756 1.67274 25066 ft 351 kts 259°
2026-05-06 17:23 51.74510 1.63355 25060 ft 351 kts 259°
2026-05-06 17:24 51.74261 1.59437 25061 ft 351 kts 259°
2026-05-06 17:24 51.74010 1.55528 25043 ft 349 kts 259°
2026-05-06 17:24 51.73765 1.51689 24689 ft 342 kts 259°
2026-05-06 17:24 51.73515 1.47832 23987 ft 347 kts 259°
2026-05-06 17:25 51.73265 1.43958 23368 ft 348 kts 260°
2026-05-06 17:25 51.73012 1.40087 22738 ft 347 kts 260°
2026-05-06 17:25 51.72758 1.36235 22129 ft 344 kts 260°
2026-05-06 17:25 51.72504 1.32434 21361 ft 336 kts 260°
2026-05-06 17:26 51.72263 1.28715 20607 ft 329 kts 260°
2026-05-06 17:26 51.72026 1.25060 20092 ft 328 kts 260°
2026-05-06 17:26 51.71788 1.21413 19865 ft 328 kts 260°
2026-05-06 17:26 51.71543 1.17807 19438 ft 316 kts 260°
2026-05-06 17:27 51.71302 1.14285 18456 ft 316 kts 260°
2026-05-06 17:27 51.71065 1.10759 17412 ft 317 kts 261°
2026-05-06 17:27 51.70829 1.07245 16588 ft 314 kts 261°
2026-05-06 17:27 51.70594 1.03742 16160 ft 314 kts 261°
2026-05-06 17:28 51.70356 1.00261 16060 ft 313 kts 261°
2026-05-06 17:28 51.70114 0.96769 16060 ft 312 kts 261°
2026-05-06 17:28 51.69883 0.93424 16066 ft 311 kts 261°
2026-05-06 17:28 51.69644 0.89966 16066 ft 310 kts 261°
2026-05-06 17:29 51.69404 0.86562 15833 ft 298 kts 260°
2026-05-06 17:29 51.69174 0.83279 14985 ft 295 kts 261°
2026-05-06 17:29 51.68943 0.79972 13971 ft 299 kts 261°
2026-05-06 17:29 51.68709 0.76668 12842 ft 295 kts 261°
2026-05-06 17:30 51.68476 0.73354 12064 ft 299 kts 261°
2026-05-06 17:30 51.68244 0.70097 11555 ft 294 kts 261°
2026-05-06 17:30 51.68011 0.66840 11061 ft 291 kts 261°
2026-05-06 17:30 51.67783 0.63648 10578 ft 288 kts 261°
2026-05-06 17:31 51.67551 0.60465 10083 ft 286 kts 261°
2026-05-06 17:31 51.67321 0.57293 9534 ft 284 kts 261°
2026-05-06 17:31 51.67092 0.54146 8992 ft 282 kts 261°
2026-05-06 17:31 51.66864 0.51034 8444 ft 280 kts 261°
2026-05-06 17:32 51.66642 0.47932 8127 ft 278 kts 261°
2026-05-06 17:32 51.66420 0.44838 8060 ft 279 kts 261°
2026-05-06 17:32 51.66191 0.41739 8068 ft 279 kts 261°
2026-05-06 17:32 51.65961 0.38650 8070 ft 278 kts 261°
2026-05-06 17:33 51.65731 0.35559 8066 ft 278 kts 261°
2026-05-06 17:33 51.65501 0.32452 8065 ft 278 kts 261°
2026-05-06 17:33 51.65270 0.29357 8067 ft 279 kts 261°
2026-05-06 17:33 51.65035 0.26262 8076 ft 279 kts 259°
2026-05-06 17:34 51.64719 0.23198 8069 ft 278 kts 257°
2026-05-06 17:34 51.64329 0.20136 8069 ft 279 kts 255°
2026-05-06 17:34 51.63636 0.17244 8086 ft 275 kts 237°
2026-05-06 17:34 51.62785 0.14460 8062 ft 280 kts 245°
2026-05-06 17:35 51.62146 0.11482 8073 ft 282 kts 256°
2026-05-06 17:35 51.61896 0.08386 8094 ft 280 kts 269°
2026-05-06 17:35 51.61763 0.05276 8073 ft 279 kts 264°
2026-05-06 17:36 51.61116 -0.00875 8048 ft 279 kts 261°
2026-05-06 17:36 51.60784 -0.03937 8001 ft 278 kts 261°
2026-05-06 17:36 51.60477 -0.06996 7992 ft 277 kts 263°
2026-05-06 17:36 51.60178 -0.10047 7990 ft 277 kts 262°
2026-05-06 17:37 51.59844 -0.13114 8035 ft 278 kts 261°
2026-05-06 17:37 51.59506 -0.16173 8037 ft 277 kts 261°
2026-05-06 17:37 51.59222 -0.19231 8039 ft 277 kts 264°
2026-05-06 17:37 51.58997 -0.22309 8034 ft 277 kts 264°
2026-05-06 17:38 51.58751 -0.25379 7975 ft 277 kts 263°
2026-05-06 17:38 51.58494 -0.28432 7557 ft 281 kts 264°
2026-05-06 17:38 51.58278 -0.31465 7142 ft 277 kts 263°
2026-05-06 17:38 51.57958 -0.34548 7009 ft 272 kts 261°
2026-05-06 17:39 51.57617 -0.37595 6989 ft 274 kts 261°
2026-05-06 17:39 51.57279 -0.40565 6993 ft 274 kts 261°
2026-05-06 17:39 51.56931 -0.43573 6994 ft 274 kts 261°
2026-05-06 17:39 51.56592 -0.46578 7001 ft 272 kts 263°
2026-05-06 17:40 51.56569 -0.49617 7026 ft 273 kts 270°
2026-05-06 17:40 51.56355 -0.52645 7004 ft 273 kts 262°
2026-05-06 17:40 51.56011 -0.55638 6987 ft 272 kts 261°
2026-05-06 17:40 51.55657 -0.58604 6580 ft 269 kts 261°
2026-05-06 17:41 51.55299 -0.61606 6046 ft 270 kts 261°
2026-05-06 17:41 51.54956 -0.64480 5784 ft 261 kts 261°
2026-05-06 17:41 51.54615 -0.67282 5620 ft 250 kts 261°
2026-05-06 17:41 51.54283 -0.69978 5434 ft 241 kts 261°
2026-05-06 17:42 51.53960 -0.72566 5286 ft 232 kts 261°
2026-05-06 17:42 51.53644 -0.75094 5153 ft 223 kts 261°
2026-05-06 17:42 51.53338 -0.77508 4980 ft 218 kts 261°
2026-05-06 17:42 51.52819 -0.79769 4694 ft 219 kts 238°
2026-05-06 17:43 51.51664 -0.81339 4409 ft 221 kts 206°
2026-05-06 17:43 51.50174 -0.81866 4132 ft 221 kts 181°
2026-05-06 17:43 51.48764 -0.81150 3905 ft 215 kts 141°
2026-05-06 17:43 51.47923 -0.79279 3755 ft 203 kts 112°
2026-05-06 17:44 51.47551 -0.77170 3651 ft 192 kts 92°
2026-05-06 17:44 51.47562 -0.75085 3574 ft 182 kts 84°
2026-05-06 17:44 51.47598 -0.73085 3440 ft 177 kts 85°
2026-05-06 17:44 51.47618 -0.71132 3276 ft 175 kts 86°
2026-05-06 17:45 51.47623 -0.69190 3064 ft 173 kts 86°
2026-05-06 17:45 51.47623 -0.67305 2990 ft 164 kts 86°
2026-05-06 17:45 51.47621 -0.65597 3003 ft 144 kts 86°
2026-05-06 17:45 51.47627 -0.63880 3029 ft 165 kts 86°
2026-05-06 17:46 51.47640 -0.61980 2985 ft 173 kts 86°
2026-05-06 17:46 51.47659 -0.60046 2984 ft 174 kts 86°
2026-05-06 17:46 51.47676 -0.58028 2476 ft 187 kts 86°
2026-05-06 17:46 51.47673 -0.55912 1979 ft 192 kts 85°
2026-05-06 17:47 51.47701 -0.53762 1275 ft 200 kts 90°
2026-05-06 17:47 51.47692 -0.51537 581 ft 194 kts 84°
2026-05-06 17:47 51.47723 -0.49527 295 ft 170 kts 91°
2026-05-06 17:47 51.47749 -0.47741 100 ft 150 kts 88°
2026-05-06 17:48 51.47753 -0.46440 98 ft 70 kts 92°
2026-05-06 17:48 51.47725 -0.46171 96 ft 0 kts 141°
2026-05-06 17:48 51.47707 -0.46149 95 ft 7 kts 143°
2026-05-06 17:48 51.47665 -0.46103 96 ft 0 kts 146°
2026-05-06 17:49 51.47656 -0.46093 95 ft 5 kts 146°
2026-05-06 17:49 51.47635 -0.46073 95 ft 0 kts 155°
2026-05-06 17:49 51.47634 -0.46072 95 ft 1 kts 158°
2026-05-06 17:49 51.47601 -0.46067 96 ft 10 kts 184°
2026-05-06 17:50 51.47527 -0.46042 99 ft 9 kts 127°
2026-05-06 17:50 51.47517 -0.45902 93 ft 18 kts 90°
2026-05-06 17:50 51.47509 -0.45675 97 ft 23 kts 93°
2026-05-06 17:50 51.47506 -0.45392 96 ft 28 kts 91°
2026-05-06 17:51 51.47506 -0.45083 98 ft 30 kts 89°
2026-05-06 17:51 51.47508 -0.44859 96 ft 0 kts 89°
2026-05-06 17:51 51.47509 -0.44749 96 ft 14 kts 89°
2026-05-06 17:51 51.47499 -0.44603 97 ft 8 kts 118°
2026-05-06 17:52 51.47436 -0.44559 93 ft 13 kts 178°
2026-05-06 17:52 51.47321 -0.44555 92 ft 20 kts 179°
2026-05-06 17:52 51.47283 -0.44554 94 ft 9 kts 179°
2026-05-06 17:52 51.47166 -0.44551 92 ft 27 kts 180°
2026-05-06 17:53 51.47022 -0.44557 92 ft 16 kts 181°
2026-05-06 17:53 51.46897 -0.44547 95 ft 14 kts 159°
2026-05-06 17:53 51.46868 -0.44467 95 ft 10 kts 100°
2026-05-06 17:53 51.46864 -0.44390 95 ft 0 kts 95°
2026-05-06 17:54 51.46863 -0.44372 95 ft 5 kts 95°